User: anonymous   Login
Location: ????????
(38.4362°N, 22.8767°E)
Time: 07:05:07
(UTC+00:00)
Language:

Lacrosse 5 rocket - Orbit

View from above orbital plane
View from above orbital plane
View from above satellite
View from above satellite

Ground track
Ground track

The orbit data is extracted from the following two-line orbital elements,

1 28647U 05016B   24164.90279477  .00006567  00000-0  29292-3 0  9992
2 28647  56.9964  46.4645 0091924 265.9318  93.1215 15.18907661279863
Epoch (UTC): 12 June 2024 21:40:01
Eccentricity: 0.0091924
inclination: 56.9964°
perigee height: 446 km
apogee height: 572 km
right ascension of ascending node: 46.4645°
argument of perigee: 265.9318°
revolutions per day: 15.18907661
mean anomaly at epoch: 93.1215°
orbit number at epoch: 27986

The dashed part of the orbit path shows where the satellite is in the earth's shadow,  

DLR